Home   Weather   Metairie   Past weeks

Flag for USA Past Weather in Metairie, Louisiana, USA — Yesterday and Last 2 Weeks

72 °F

Broken clouds.

Feels Like: 74 °F
Forecast: 63 / 78 °F
Wind: 8 mph from Northeast

Location: New Orleans International Airport

Current Time: Oct 24, 2016 at 9:24:00 AM

Latest Report: Oct 24, 2016 at 8:53 AM

Visibility: 10 mi

Pressure: 30.32 "Hg

Humidity: 71%

Dew Point: 62 °F

Location of MetairieLocation

Past Weather in Metairie — Graph


Metairie Temperature Yesterday

Maximum temperature yesterday: 80 °F (at 2:53 PM)
Minimum temperature yesterday: 55 °F (at 6:53 AM)
Average temperature yesterday: 67 °F

High & Low Weather Summary for the Past Weeks

High91 °F (Oct 17, 12:53 PM)90% (Oct 13, 5:53 AM)30.29 "Hg (Oct 13, 5:53 AM)
Low55 °F (Oct 23, 6:53 AM)24% (Oct 22, 4:53 PM)29.89 "Hg (Oct 17, 4:53 PM)
Average77 °F64%30.10 "Hg
* Reported Oct 9 7:53 AM — Oct 24 7:53 AM, Metairie, Weather by CustomWeather, © 2016

Note: Actual official high and low records may vary slightly from our data, if they occured in-between our weather recording intervals... More about our weather records


Metairie Weather History for the Previous 24 Hours

Scroll right to see more
Time TempWeatherWind HumidityBarometerVisibility
7:53 AM
Mon, Oct 24
67 °FBroken clouds.No wind85%30.29 "Hg10 mi
6:53 AM61 °FPassing clouds.No wind83%30.28 "Hg10 mi
5:53 AM61 °FPassing clouds.3 mph83%30.27 "Hg10 mi
4:53 AM62 °FPassing clouds.No wind80%30.26 "Hg10 mi
3:53 AM62 °FPassing clouds.No wind80%30.25 "Hg10 mi
2:53 AM61 °FPassing clouds.No wind83%30.25 "Hg10 mi
1:53 AM62 °FClear.No wind78%30.26 "Hg10 mi
12:53 AM63 °FClear.No wind75%30.25 "Hg10 mi
11:53 PM
Sun, Oct 23
64 °FPassing clouds.No wind75%30.26 "Hg10 mi
10:53 PM64 °FPassing clouds.No wind73%30.27 "Hg10 mi
9:53 PM68 °FPassing clouds.3 mph63%30.26 "Hg10 mi
8:53 PM68 °FPassing clouds.No wind63%30.25 "Hg10 mi
7:53 PM69 °FPassing clouds.No wind59%30.24 "Hg10 mi
6:53 PM72 °FPassing clouds.3 mph49%30.23 "Hg10 mi
5:53 PM75 °FPartly sunny.6 mph43%30.22 "Hg10 mi
4:53 PM78 °FPartly sunny.10 mph37%30.22 "Hg10 mi
3:53 PM78 °FSunny.8 mph37%30.22 "Hg10 mi
2:53 PM80 °FPartly sunny.8 mph29%30.23 "Hg10 mi
1:53 PM79 °FPartly sunny.9 mph31%30.24 "Hg10 mi
12:53 PM78 °FSunny.7 mph31%30.26 "Hg10 mi
11:53 AM77 °FScattered clouds.7 mph36%30.28 "Hg10 mi
10:53 AM75 °FScattered clouds.8 mph36%30.29 "Hg10 mi
9:53 AM73 °FScattered clouds.7 mph41%30.29 "Hg10 mi
Weather by CustomWeather, © 2016

See weather overviewHow to use our weather pages